Portada
METAR-TAF:

METAR-TAF

Aeroports :

Sapporo, Japó

latitud: 43-07N, longitud: 141-23E, altitud: 8 m

Observació

L'informe es va fer fa 1 hora i 10 minuts, a les 10:00 UTC
Vent 8 kt del Oest/Nord-Oest, variant entre Oest i Nord-Oest
Temperatura -2°C
Humitat 63%
Pressió 1026 hPa
Visibilitat 10 km o més
Escasses núvols a una alçada de 2500 ft
Cel ennuvolat a una alçada de 6000 ft
xàfecs en les proximitats

METAR: RJCO 011000Z 29008KT 260V320 9999 VCSH FEW025 BKN060 M02/M08 Q1026

Hora: 20:10 (11:10 UTC)


TAF: manca

Observacions i pronòstics meteorològics de més de 4000 aeroports (METAR i TAF).

Les estacions disponibles són els punts grocs i vermells al mapa.

Posi el ratolí al punt desitjat per veure el nom de l'estació.

Feu clic per veure les observacions i els pronòstics meteorològics.

Per canviar el mapa: feu clic els botons verds amb una creu de color negre per apropar; al botó verd amb un guió per allunyar la imatge; o en les fletxes verdes per a mapes adjacents.


METAR-TAF: